Temp
55 55 55 55 56 56 56 56 56 56 56 56 57 57 58 58 58 58 65 73 66 63 68 73 74 68 71 72 67 72 73 76 73 66 66 66 66 70 69 72 70 67 63 62 64 59 56 77 78 68 71 76 77 78
55 55 55 55 55 55 55 55 55 55 56 56 56 57 57 58 58 57 62 73 73 63 65 71 72 74 73 74 70 71 69 69 74 68 70 70 66 70 67 62 76 66 72 67 68 62 73 77 74 75 77 76 78 78
54 54 54 55 55 55 55 55 55 55 56 56 56 57 57 57 57 56 60 66 68 62 65 69 70 78 82 79 81 65 71 74 72 76 68 67 61 70 64 67 70 74 79 70 70 74 75 76 78 81 82 80 80 81
54 54 54 55 55 55 55 55 55 55 55 56 56 57 57 57 56 56 60 67 67 63 57 67 83 77 83 83 80 78 74 75 74 73 67 65 63 73 67 70 69 75 70 67 70 74 77 78 80 81 81 81 80 81
53 54 54 54 54 54 55 55 55 55 55 56 56 56 56 56 56 58 63 67 69 61 54 60 69 75 80 78 77 77 75 71 69 66 64 62 69 68 71 72 69 76 71 65 65 69 68 74 80 82 79 78 80 79
53 53 53 54 54 54 54 55 55 55 55 55 55 56 56 56 55 60 56 69 71 69 58 55 74 72 76 78 75 72 73 71 70 66 65 69 74 68 61 61 71 78 79 80 75 80 79 80 80 81 78 77 79 79
53 53 53 53 54 54 54 54 54 55 55 55 55 55 55 55 59 54 51 53 59 63 55 55 62 75 74 75 74 73 74 70 69 67 65 66 68 68 62 58 68 73 78 75 81 79 74 78 76 80 80 80 76 79
53 53 53 53 53 54 54 54 54 54 55 55 55 55 55 54 54 56 65 58 61 58 57 53 58 66 77 69 68 75 69 70 68 66 67 64 64 65 58 65 69 73 75 75 77 79 79 80 79 79 80 79 77 78
53 53 53 53 53 53 54 54 54 54 54 55 55 55 58 55 55 60 61 58 64 58 50 56 55 55 75 70 71 71 72 62 71 64 65 64 59 51 62 65 69 71 72 75 79 79 79 77 76 77 79 79 77 77
53 53 53 53 53 53 53 54 54 54 54 54 56 51 48 56 58 61 59 53 50 53 56 50 61 56 67 67 63 59 60 57 56 63 68 62 59 66 68 70 65 62 68 71 72 65 66 74 74 76 77 78 78 79
52 53 53 53 53 53 53 54 54 53 52 56 50 50 53 59 60 52 50 51 54 50 56 58 60 57 70 59 57 56 50 49 47 56 55 57 56 64 71 70 60 60 59 76 78 78 78 77 71 74 76 78 76 61
53 53 53 53 53 53 53 53 53 55 56 54 53 59 54 53 51 46 47 52 51 51 61 59 63 64 65 69 56 53 48 49 45 57 49 49 60 60 61 62 67 61 61 67 78 76 74 74 74 75 77 77 69 62
52 52 52 52 53 53 53 53 52 55 55 59 54 49 46 50 39 44 44 50 53 61 62 57 54 60 64 61 56 54 44 40 48 48 49 47 55 54 51 51 63 67 73 74 71 71 72 70 71 72 71 75 71 64
52 52 52 52 53 53 53 53 53 54 53 47 45 37 42 42 51 55 55 45 53 56 55 57 54 55 61 54 55 47 55 52 42 43 46 52 57 58 56 65 69 69 70 69 70 71 71 70 69 70 69 68 68 61
52 52 52 52 53 53 53 53 53 58 51 44 43 38 50 58 53 59 60 54 61 60 59 53 54 55 51 51 53 51 45 47 48 43 51 54 57 62 63 65 66 67 69 68 69 69 68 67 65 63 62 59 58 64
52 53 54 53 53 53 52 53 56 55 49 47 45 47 56 55 53 55 58 57 62 59 58 57 52 52 51 53 51 48 45 40 46 55 56 57 62 63 63 63 64 64 65 62 62 67 64 64 61 58 59 59 62 63
51 55 53 53 53 52 53 55 53 47 48 50 52 57 55 54 54 56 57 55 58 54 49 53 49 47 50 48 45 44 46 53 56 59 60 61 59 60 58 57 57 63 62 66 67 63 65 63 64 60 59 61 61 61
49 57 53 52 55 54 55 49 50 51 48 56 53 54 56 52 52 56 58 59 54 53 54 51 55 46 46 49 47 54 61 62 60 58 58 59 59 59 59 60 60 62 62 64 65 64 64 61 62 59 62 62 63 60
56 58 53 53 57 54 49 49 52 42 49 52 54 51 48 51 56 59 54 59 59 57 53 54 53 52 51 53 54 58 59 60 57 57 60 60 62 62 62 63 65 64 62 62 63 62 63 64 63 62 60 56 53 54
53 53 53 54 53 47 44 45 49 47 43 46 47 45 47 49 53 55 56 57 55 56 52 51 50 54 55 58 61 60 61 61 60 58 57 58 63 64 60 59 62 64 62 65 65 60 65 66 67 66 65 63 63 61
55 55 54 56 51 48 46 46 46 46 46 45 48 47 48 54 53 52 52 55 53 49 48 53 54 56 61 63 64 60 60 59 58 63 59 55 63 64 59 62 61 70 66 68 69 62 57 60 67 68 66 67 70 71
57 54 57 54 47 49 48 50 47 50 46 47 47 49 49 47 49 49 56 57 55 56 55 54 54 58 60 62 62 66 65 66 65 64 59 64 64 68 70 71 72 70 69 70 70 68 68 65 71 71 72 71 70 71
55 58 52 50 45 43 43 51 46 47 43 45 48 46 47 50 54 58 51 51 52 59 62 61 63 62 62 65 67 66 67 67 67 68 64 67 73 73 73 73 74 73 71 72 74 73 71 57 69 72 72 71 71 69
54 48 44 43 43 39 45 44 47 46 50 51 52 47 50 53 59 55 51 51 54 60 61 62 61 61 61 65 63 67 69 69 68 69 73 74 72 71 73 74 75 74 74 74 74 73 72 72 63 72 70 70 71 70
41 41 41 39 43 41 42 47 50 48 48 53 55 54 51 60 56 53 51 52 53 54 58 61 62 62 61 59 54 60 68 73 71 72 75 75 74 74 73 74 73 75 77 73 71 71 71 72 71 70 69 68 67 67
36 46 42 44 46 45 51 49 53 55 57 57 58 61 62 59 53 51 53 54 56 59 58 61 65 65 56 55 54 56 57 67 71 72 74 77 76 74 72 71 70 71 76 75 73 71 70 71 69 69 67 63 51 65
40 54 56 58 54 56 57 62 64 60 57 54 58 60 58 49 46 54 58 62 62 66 67 61 65 62 61 64 71 75 75 74 71 69 77 77 77 76 74 70 68 69 76 75 74 72 70 70 69 69 69 70 69 68
56 60 55 62 61 65 59 59 59 56 58 62 62 53 50 50 49 58 63 69 73 72 74 75 74 75 75 74 77 78 78 78 76 77 78 76 76 76 75 74 72 53 69 69 70 71 70 69 69 69 68 68 68 70
59 65 64 59 60 60 58 57 56 60 65 64 59 57 56 61 66 67 69 74 76 75 75 74 76 78 78 77 76 77 77 76 73 68 68 66 67 71 76 76 74 73 74 70 46 59 65 66 66 67 68 68 69 70
54 66 59 60 57 53 58 62 60 64 67 66 66 65 66 67 68 66 74 76 74 75 76 77 77 76 74 75 73 72 74 74 73 71 68 67 69 73 74 74 74 76 74 74 72 68 48 59 61 64 64 68 68 66
61 65 60 60 56 61 68 70 68 70 70 69 70 66 66 69 74 78 77 77 79 79 75 75 75 75 73 72 71 71 69 72 71 71 71 74 74 72 72 73 75 74 73 72 71 71 70 68 69 68 67 65 65 62
63 60 62 59 59 68 71 69 69 69 70 69 69 72 71 71 66 71 76 77 76 73 64 70 73 72 74 75 73 72 55 71 70 69 68 69 70 70 72 74 74 73 72 71 71 71 70 67 67 66 66 65 65 64
62 64 66 64 64 63 68 68 67 65 70 69 69 71 70 68 63 72 79 79 76 76 76 75 76 75 72 73 73 71 61 70 60 47 46 46 44 51 64 71 71 71 70 69 70 70 68 66 66 65 65 65 64 64
MSLP
1021.07 1021.00 1020.90 1020.83 1020.79 1020.82 1020.89 1020.93 1020.94 1020.91 1020.88 1020.78 1020.66 1020.54 1020.34 1020.16 1019.92 1019.48 1017.19 1015.79 1015.52 1013.84 1011.59 1010.89 1010.30 1010.00 1009.15 1008.39 1007.47 1006.80 1006.15 1005.35 1005.32 1005.04 1004.82 1004.37 1003.35 1002.52 1001.82 1001.27 1001.05 1001.30 1002.10 1002.48 1002.82 1002.85 1002.31 1002.74 1002.00 1002.71 1003.39 1003.59 1003.82 1004.04
1020.38 1020.38 1020.41 1020.34 1020.23 1020.21 1020.29 1020.40 1020.49 1020.54 1020.54 1020.50 1020.47 1020.40 1020.24 1020.11 1019.95 1019.84 1017.49 1015.75 1015.60 1015.14 1012.90 1012.36 1011.96 1011.45 1010.92 1010.09 1009.67 1008.76 1007.91 1007.18 1005.91 1005.76 1005.28 1004.69 1003.96 1003.16 1002.48 1001.29 1001.04 1000.90 1000.89 1001.29 1001.82 1002.50 1003.42 1003.27 1003.45 1004.03 1004.18 1003.87 1003.93 1004.05
1019.92 1019.94 1019.83 1019.74 1019.71 1019.66 1019.71 1019.86 1019.99 1020.08 1020.12 1020.17 1020.17 1020.13 1020.11 1020.00 1019.99 1020.02 1018.56 1017.04 1015.88 1014.94 1012.81 1011.26 1010.09 1009.56 1009.75 1010.10 1010.20 1009.77 1008.72 1008.08 1007.63 1007.47 1007.34 1006.13 1004.97 1004.17 1002.71 1001.78 1001.26 1000.82 1000.85 1001.20 1001.61 1001.60 1002.35 1002.75 1003.05 1003.35 1003.40 1003.61 1004.01 1004.28
1019.54 1019.47 1019.47 1019.41 1019.38 1019.34 1019.32 1019.39 1019.52 1019.56 1019.66 1019.72 1019.80 1019.87 1019.89 1019.86 1019.89 1019.93 1018.64 1017.05 1016.17 1015.19 1013.22 1009.82 1008.66 1008.77 1008.74 1008.86 1009.09 1009.52 1009.42 1009.13 1008.87 1008.40 1007.74 1006.89 1005.72 1005.02 1003.86 1002.82 1001.84 1001.18 1001.76 1002.39 1001.57 1001.53 1001.92 1002.04 1002.53 1002.65 1002.99 1003.47 1004.01 1004.30
1019.27 1019.20 1019.12 1019.09 1019.07 1018.99 1018.95 1019.00 1019.10 1019.22 1019.30 1019.41 1019.53 1019.58 1019.60 1019.63 1019.64 1019.44 1018.39 1017.28 1016.56 1016.11 1013.96 1011.58 1010.54 1009.65 1009.04 1009.00 1008.78 1008.85 1008.96 1009.06 1008.91 1008.48 1007.83 1006.95 1006.47 1006.09 1004.99 1003.88 1002.32 1001.91 1001.47 1001.99 1001.58 1001.88 1002.65 1002.37 1001.96 1002.40 1002.97 1003.39 1003.73 1003.96
1018.91 1018.87 1018.81 1018.79 1018.82 1018.77 1018.72 1018.72 1018.72 1018.79 1018.91 1019.14 1019.25 1019.40 1019.43 1019.38 1019.52 1018.59 1016.83 1015.87 1016.38 1016.01 1015.13 1012.53 1009.17 1008.35 1008.04 1007.79 1008.15 1008.50 1008.51 1008.59 1008.60 1008.14 1007.49 1006.82 1006.43 1006.38 1005.68 1004.12 1003.05 1002.06 1001.72 1001.78 1001.79 1001.31 1001.72 1002.13 1002.23 1002.63 1003.26 1003.81 1004.01 1003.83
1018.34 1018.38 1018.43 1018.49 1018.53 1018.45 1018.42 1018.40 1018.47 1018.54 1018.68 1018.83 1019.03 1019.20 1019.29 1019.30 1019.14 1018.52 1018.36 1018.39 1017.88 1017.44 1015.80 1012.87 1009.05 1006.41 1007.67 1007.46 1007.48 1007.57 1007.70 1008.13 1008.07 1007.52 1007.09 1006.84 1006.35 1006.29 1005.69 1004.40 1003.44 1003.08 1002.07 1001.58 1001.46 1001.60 1001.81 1002.03 1002.23 1002.70 1002.97 1003.16 1003.36 1003.35
1017.82 1017.95 1018.07 1018.14 1018.16 1018.09 1018.13 1018.14 1018.22 1018.43 1018.62 1018.79 1019.02 1019.20 1019.31 1019.38 1019.32 1018.27 1016.73 1017.11 1017.88 1017.26 1015.99 1012.93 1009.41 1007.49 1006.57 1006.27 1006.15 1006.39 1006.62 1006.86 1007.05 1006.87 1006.48 1006.24 1006.65 1006.11 1004.47 1003.87 1004.19 1003.25 1002.56 1001.69 1001.90 1001.58 1001.62 1001.80 1002.26 1002.51 1002.74 1002.80 1002.67 1002.43
1017.38 1017.49 1017.68 1017.79 1017.90 1017.90 1017.93 1018.02 1018.14 1018.37 1018.65 1018.83 1019.03 1019.20 1018.96 1018.89 1017.68 1016.16 1016.25 1017.16 1017.28 1016.93 1015.21 1012.53 1009.90 1007.42 1006.28 1006.33 1006.12 1005.98 1005.69 1005.63 1005.49 1005.15 1005.14 1005.74 1005.52 1004.88 1003.77 1003.68 1003.44 1003.22 1002.78 1001.80 1001.02 1001.19 1001.48 1001.52 1001.98 1002.02 1001.94 1001.92 1002.18 1002.46
1017.00 1017.14 1017.34 1017.52 1017.70 1017.76 1017.80 1017.89 1018.07 1018.37 1018.67 1018.94 1019.06 1018.73 1017.79 1016.75 1016.83 1016.42 1016.94 1016.80 1017.04 1016.10 1014.89 1012.65 1010.64 1008.50 1007.54 1006.58 1007.24 1007.81 1007.38 1006.79 1005.26 1004.76 1004.92 1004.45 1003.99 1004.09 1004.15 1003.66 1003.53 1003.61 1003.48 1002.59 1001.40 1001.66 1002.71 1001.36 1001.72 1001.60 1001.58 1002.09 1002.02 1002.13
1016.71 1016.82 1017.03 1017.28 1017.49 1017.62 1017.70 1017.81 1018.07 1018.52 1018.88 1018.59 1018.03 1017.15 1016.98 1016.64 1016.10 1016.02 1015.07 1014.49 1013.95 1013.26 1012.17 1010.58 1009.60 1008.52 1007.66 1007.30 1007.63 1009.38 1009.35 1008.93 1007.38 1006.35 1005.45 1003.88 1003.01 1002.57 1002.61 1003.09 1003.30 1004.07 1003.96 1002.28 1001.58 1001.41 1001.59 1001.68 1001.83 1002.25 1001.82 1002.05 1002.36 1003.63
1016.38 1016.51 1016.78 1017.06 1017.25 1017.44 1017.55 1017.73 1018.05 1018.13 1017.59 1017.58 1017.43 1016.71 1016.69 1016.35 1015.39 1014.79 1013.61 1012.72 1012.03 1010.51 1008.66 1008.51 1007.62 1007.57 1007.46 1007.44 1008.46 1009.72 1009.69 1009.85 1008.05 1007.18 1005.85 1003.79 1002.24 1002.47 1002.85 1003.16 1002.52 1002.49 1003.40 1002.34 1001.56 1001.76 1002.23 1002.31 1002.13 1002.02 1002.00 1002.24 1003.10 1004.48
1016.22 1016.42 1016.62 1016.81 1017.04 1017.27 1017.47 1017.68 1017.94 1017.75 1017.76 1017.02 1016.85 1016.37 1016.02 1014.96 1014.19 1012.79 1011.26 1010.46 1009.51 1008.44 1008.15 1008.60 1008.30 1007.94 1007.78 1008.56 1009.24 1009.39 1009.55 1009.37 1009.20 1007.37 1005.35 1004.69 1004.11 1003.72 1004.00 1004.10 1002.72 1002.95 1002.35 1002.09 1002.44 1002.63 1002.85 1003.05 1002.89 1002.82 1003.21 1003.20 1003.79 1003.60
1015.93 1016.04 1016.19 1016.43 1016.65 1016.89 1017.16 1017.48 1017.82 1018.24 1018.15 1017.02 1016.15 1015.83 1014.82 1013.15 1011.47 1009.92 1009.43 1010.46 1009.86 1009.14 1009.33 1008.90 1008.98 1008.46 1008.04 1008.89 1008.94 1009.09 1008.26 1007.82 1007.83 1006.47 1004.88 1004.80 1004.60 1004.64 1004.86 1003.33 1002.31 1001.84 1002.71 1002.88 1003.13 1003.27 1003.42 1003.86 1003.94 1003.93 1004.56 1005.11 1004.80 1004.86
1015.58 1015.72 1015.90 1016.02 1015.95 1016.25 1016.76 1017.32 1017.84 1017.84 1017.40 1016.63 1016.27 1014.65 1012.12 1010.61 1010.93 1009.89 1009.35 1009.45 1008.74 1008.40 1008.67 1009.03 1008.96 1008.58 1008.39 1008.54 1008.61 1008.64 1008.33 1006.84 1006.25 1006.22 1005.76 1005.60 1005.01 1004.64 1004.27 1003.90 1003.88 1003.78 1003.53 1003.59 1003.78 1004.10 1004.60 1005.07 1005.27 1005.62 1005.84 1005.73 1006.37 1004.86
1015.42 1015.63 1015.58 1015.78 1016.17 1016.59 1017.11 1017.67 1017.84 1017.64 1017.09 1016.13 1015.49 1013.30 1011.46 1010.73 1010.23 1009.94 1009.42 1009.19 1009.12 1009.12 1009.14 1009.09 1008.61 1008.05 1007.84 1007.77 1007.48 1007.48 1007.41 1007.42 1006.60 1005.96 1005.86 1005.75 1005.46 1005.43 1005.36 1005.37 1005.28 1004.98 1004.67 1004.66 1004.51 1004.81 1005.44 1005.98 1006.64 1006.90 1006.95 1006.92 1007.35 1007.10
1015.45 1015.02 1015.40 1015.96 1016.45 1016.88 1017.16 1017.22 1017.26 1017.12 1015.91 1014.18 1012.53 1011.54 1011.50 1011.14 1010.60 1010.16 1009.80 1009.90 1009.80 1009.63 1009.05 1008.54 1007.93 1008.00 1008.33 1007.73 1007.45 1007.96 1006.83 1005.76 1005.98 1006.05 1006.03 1005.97 1005.95 1005.97 1005.88 1005.85 1005.58 1005.28 1005.14 1004.93 1005.19 1005.71 1006.19 1006.63 1007.15 1007.57 1007.84 1008.20 1008.40 1008.56
1015.32 1015.21 1015.78 1016.29 1016.61 1017.13 1017.31 1017.60 1016.56 1015.24 1013.95 1012.58 1011.61 1011.23 1011.69 1011.78 1011.23 1010.50 1009.92 1009.94 1010.14 1009.61 1008.94 1008.41 1007.82 1007.96 1006.99 1006.32 1006.96 1006.46 1005.54 1005.92 1006.38 1006.68 1006.65 1006.49 1006.36 1006.39 1006.38 1006.17 1005.89 1005.90 1005.88 1005.94 1006.16 1006.52 1006.80 1007.18 1007.54 1008.03 1008.43 1008.86 1009.16 1009.56
1014.94 1015.37 1016.04 1016.32 1016.37 1016.51 1016.74 1016.78 1016.16 1014.94 1013.38 1012.74 1012.26 1012.35 1012.24 1011.72 1011.05 1010.51 1010.36 1010.08 1009.75 1009.77 1009.60 1008.02 1007.14 1006.88 1006.90 1007.14 1006.88 1006.72 1006.62 1006.73 1007.04 1007.15 1007.03 1006.88 1006.70 1006.65 1006.56 1006.50 1006.45 1006.40 1006.47 1006.60 1006.82 1007.13 1007.42 1007.68 1008.14 1008.56 1009.05 1009.48 1009.57 1009.86
1015.59 1016.10 1016.62 1016.83 1016.79 1016.76 1016.14 1015.46 1015.36 1014.37 1013.46 1013.06 1012.77 1012.45 1012.14 1011.50 1010.87 1010.30 1009.92 1009.59 1009.47 1009.21 1008.81 1008.41 1007.95 1007.81 1007.42 1006.99 1006.69 1006.97 1007.05 1007.18 1007.20 1007.24 1007.40 1007.28 1007.08 1007.07 1007.47 1007.38 1007.23 1007.01 1006.96 1007.12 1007.44 1007.70 1007.94 1007.99 1008.34 1008.80 1009.20 1009.42 1009.55 1009.87
1015.97 1016.63 1016.96 1016.79 1016.86 1016.60 1015.73 1014.64 1014.04 1013.67 1013.10 1012.76 1012.41 1012.12 1011.37 1010.46 1010.14 1009.92 1009.79 1009.55 1009.36 1009.22 1009.02 1008.93 1008.65 1008.04 1007.60 1007.31 1007.24 1007.33 1007.38 1007.36 1007.31 1007.26 1007.63 1007.37 1006.83 1006.97 1007.44 1007.32 1007.19 1006.79 1006.92 1006.95 1006.94 1007.78 1007.93 1008.11 1008.06 1008.64 1009.07 1008.81 1008.78 1008.95
1015.74 1016.31 1016.16 1016.63 1016.41 1015.44 1014.60 1013.76 1013.51 1012.89 1012.88 1012.31 1011.95 1011.43 1010.80 1009.94 1009.80 1009.85 1009.63 1009.07 1009.42 1009.29 1009.35 1009.21 1008.68 1008.32 1008.00 1007.79 1007.76 1007.63 1007.66 1007.63 1007.72 1007.65 1007.33 1007.11 1006.75 1006.58 1006.55 1006.46 1006.36 1006.55 1006.85 1006.91 1007.17 1007.47 1007.83 1008.16 1007.99 1008.16 1008.23 1008.61 1008.86 1009.35
1015.90 1015.67 1015.78 1015.72 1015.50 1014.79 1014.04 1013.42 1012.76 1012.17 1011.95 1011.51 1010.97 1010.48 1010.00 1009.62 1009.47 1009.38 1009.31 1009.64 1009.65 1009.52 1009.33 1009.07 1008.82 1008.72 1008.49 1008.26 1008.16 1008.10 1008.00 1007.86 1007.80 1007.72 1007.56 1007.32 1006.83 1006.82 1006.82 1006.77 1006.63 1006.50 1006.62 1006.81 1006.97 1007.11 1007.73 1007.99 1008.07 1008.15 1008.67 1009.01 1009.23 1009.40
1015.94 1015.88 1015.56 1015.29 1014.87 1014.27 1013.75 1012.88 1012.33 1011.73 1010.80 1010.05 1009.37 1009.40 1009.16 1009.08 1008.93 1008.98 1009.44 1009.69 1009.92 1009.29 1008.99 1009.03 1009.14 1009.08 1009.01 1008.69 1008.61 1008.42 1008.31 1008.15 1007.92 1007.66 1007.16 1006.75 1006.95 1007.25 1007.20 1007.05 1006.98 1007.23 1007.34 1007.40 1007.46 1007.78 1008.04 1008.27 1008.46 1008.64 1009.12 1009.15 1009.02 1009.13
1016.21 1015.64 1015.38 1014.69 1014.11 1013.48 1012.52 1011.41 1010.71 1010.45 1009.60 1009.00 1008.28 1008.39 1008.91 1008.56 1008.51 1009.19 1009.87 1010.26 1010.01 1009.66 1009.41 1009.25 1009.24 1009.31 1009.45 1009.79 1009.61 1009.27 1008.83 1008.03 1007.59 1006.98 1006.71 1006.52 1006.54 1006.69 1007.16 1007.61 1007.87 1007.81 1007.64 1007.92 1008.13 1008.27 1008.44 1008.59 1008.85 1009.04 1009.39 1009.69 1009.85 1009.82
1014.56 1013.17 1013.48 1012.16 1012.04 1011.58 1010.39 1009.62 1008.70 1008.26 1007.74 1007.54 1007.41 1007.49 1007.74 1008.36 1008.79 1009.62 1010.47 1010.71 1010.29 1009.89 1009.76 1009.63 1009.19 1009.22 1009.78 1010.16 1010.13 1009.66 1009.33 1008.70 1008.22 1007.45 1007.25 1007.00 1007.12 1007.21 1007.30 1007.61 1007.94 1008.43 1008.35 1008.48 1008.61 1008.79 1008.95 1009.18 1009.45 1009.52 1009.99 1010.47 1010.75 1010.46
1012.85 1010.60 1009.99 1009.52 1009.51 1009.39 1008.59 1007.85 1007.32 1007.49 1007.49 1007.71 1007.63 1007.41 1007.76 1009.01 1010.01 1010.52 1010.79 1010.60 1009.95 1009.49 1009.48 1009.65 1009.59 1009.43 1009.29 1009.26 1008.89 1008.60 1008.54 1008.57 1008.68 1008.55 1008.09 1008.08 1008.19 1008.43 1008.54 1008.84 1009.20 1009.78 1009.13 1009.16 1009.32 1009.41 1009.50 1009.56 1009.67 1009.85 1009.92 1010.05 1010.30 1010.53
1011.20 1010.08 1009.47 1008.59 1008.16 1008.11 1008.02 1007.82 1007.81 1008.06 1007.94 1007.76 1007.67 1008.46 1009.17 1009.86 1010.41 1010.73 1010.47 1009.94 1009.36 1009.09 1008.96 1008.98 1008.92 1008.76 1008.81 1008.81 1008.42 1008.20 1008.12 1008.25 1008.42 1008.18 1008.05 1008.54 1008.84 1009.13 1009.15 1009.64 1010.23 1010.61 1010.66 1010.89 1010.60 1010.41 1010.52 1010.46 1010.46 1010.34 1010.29 1010.22 1010.29 1010.45
1010.30 1009.55 1009.04 1008.40 1008.26 1008.58 1008.74 1008.71 1008.51 1008.34 1008.27 1007.87 1008.12 1008.63 1009.58 1010.04 1010.02 1009.90 1009.58 1009.06 1008.80 1008.72 1008.54 1008.33 1008.40 1008.20 1008.35 1008.69 1008.95 1008.97 1008.92 1008.58 1008.36 1008.27 1008.25 1008.47 1009.13 1009.10 1009.32 1009.38 1009.79 1010.14 1010.01 1010.77 1011.39 1011.37 1011.46 1011.33 1011.42 1011.21 1010.88 1010.62 1010.47 1010.39
1010.30 1009.35 1009.00 1008.82 1008.86 1009.28 1009.26 1009.11 1008.99 1008.79 1008.69 1008.79 1009.08 1009.31 1009.47 1009.59 1009.89 1009.74 1009.13 1008.64 1008.36 1008.30 1008.31 1008.24 1008.31 1008.30 1008.40 1008.34 1008.83 1009.50 1009.95 1009.98 1009.73 1009.46 1009.21 1009.20 1009.50 1009.84 1009.75 1009.71 1009.73 1009.67 1009.96 1010.12 1010.28 1011.07 1011.68 1011.61 1011.38 1011.46 1011.22 1010.61 1010.42 1010.80
1010.39 1009.69 1009.63 1009.67 1009.81 1009.69 1009.15 1009.09 1009.26 1008.90 1008.80 1008.81 1009.05 1009.10 1009.09 1009.00 1008.90 1008.79 1008.71 1008.63 1008.37 1008.24 1008.45 1008.38 1008.62 1009.24 1009.39 1009.50 1009.62 1009.48 1010.00 1010.60 1010.96 1011.00 1010.94 1010.24 1010.38 1010.75 1010.65 1010.50 1010.25 1010.36 1010.49 1010.59 1010.53 1010.53 1010.81 1010.86 1010.62 1010.53 1010.46 1010.71 1010.79 1010.95
1010.63 1010.45 1010.04 1009.75 1009.91 1009.79 1009.53 1009.12 1008.98 1008.58 1008.35 1008.19 1008.12 1008.00 1008.21 1008.22 1008.53 1009.08 1009.44 1008.98 1008.49 1008.45 1009.28 1009.31 1009.14 1009.59 1009.98 1010.21 1010.53 1010.93 1011.40 1011.37 1011.63 1011.92 1012.17 1011.82 1011.59 1011.67 1011.35 1010.86 1010.81 1010.94 1010.82 1010.63 1010.43 1010.41 1010.52 1010.75 1010.72 1010.76 1010.73 1010.78 1010.88 1010.94
1010.87 1010.62 1010.32 1010.12 1009.88 1009.36 1009.14 1009.08 1008.76 1008.51 1008.07 1007.84 1007.80 1007.75 1007.99 1008.43 1008.98 1009.11 1009.19 1009.53 1009.46 1009.13 1009.08 1009.57 1009.70 1010.27 1010.84 1010.83 1010.97 1011.22 1011.52 1011.95 1012.40 1012.69 1012.83 1012.94 1013.01 1012.90 1012.50 1011.86 1011.71 1011.43 1011.14 1010.89 1010.60 1010.57 1010.58 1010.77 1010.88 1010.90 1010.93 1010.86 1010.91 1010.93
Wind_Speed
15 15 15 15 15 14 13 12 11 11 10 10 9 9 9 8 9 9 8 6 6 9 15 14 13 11 11 8 9 12 7 7 7 10 11 12 14 15 18 17 16 14 13 14 13 17 21 15 2 7 7 2 1 3
12 11 12 13 13 13 12 12 11 11 9 9 9 9 9 8 8 8 8 7 7 7 13 18 17 17 17 15 12 10 13 12 5 8 7 9 13 13 15 15 15 15 14 10 10 3 5 4 1 3 7 2 3 4
10 12 12 11 11 12 12 12 11 11 10 9 9 8 8 7 7 7 9 9 6 7 12 14 13 16 18 18 14 11 10 13 11 7 9 10 11 11 12 14 17 18 10 11 11 11 9 8 5 8 7 6 2 5
11 10 9 8 9 10 10 10 10 11 10 10 7 8 8 7 7 7 8 9 6 6 7 8 5 8 6 8 13 15 15 15 14 10 9 11 13 11 15 19 16 9 6 13 10 8 10 11 12 8 6 5 4 6
10 10 8 7 8 8 8 9 9 10 10 10 8 7 7 7 7 9 9 9 7 8 8 11 22 19 14 11 11 13 14 14 10 11 11 12 12 14 14 17 16 13 8 9 11 5 11 11 4 3 3 6 6 10
12 11 9 8 9 9 8 8 8 9 11 11 9 6 6 7 6 7 4 7 4 7 5 6 5 14 13 10 18 16 12 11 11 12 11 13 20 12 14 16 21 21 17 16 15 9 6 8 7 5 5 8 13 13
12 10 10 9 9 8 9 11 10 8 6 7 7 6 6 6 7 6 6 3 9 8 3 7 6 11 10 12 11 11 13 8 12 12 13 14 15 11 13 17 24 23 23 11 10 7 9 10 8 9 11 11 12 13
11 10 10 9 8 9 6 5 5 6 6 6 6 5 4 4 9 8 10 14 6 4 5 6 6 8 15 9 9 10 11 11 13 13 13 10 11 12 19 22 23 22 24 14 15 11 10 8 11 11 10 12 15 15
10 11 9 8 7 5 5 4 6 8 7 6 5 4 6 5 5 3 14 14 4 4 5 5 9 9 5 7 6 9 8 12 11 13 14 14 13 10 13 20 23 20 21 18 16 6 12 13 14 14 14 15 14 15
9 10 9 8 7 5 4 5 9 9 7 6 6 3 4 4 14 12 6 5 5 6 6 7 10 13 12 6 3 7 4 9 11 10 14 15 15 22 23 23 8 8 15 17 14 6 20 6 10 12 10 11 13 15
10 10 10 9 8 6 6 7 10 10 7 5 4 4 2 1 6 4 5 6 6 5 7 8 13 12 10 11 2 2 2 5 6 4 10 14 17 20 23 21 10 7 21 20 13 7 9 10 5 11 9 11 9 15
9 8 9 9 9 7 5 10 12 11 2 1 3 3 3 4 5 5 5 5 6 6 7 9 7 10 7 5 2 4 2 4 7 8 2 6 12 3 10 13 13 10 11 23 4 4 6 9 8 12 12 10 7 15
7 8 9 9 9 8 8 10 14 8 5 6 4 3 2 4 4 7 10 8 7 5 4 4 5 1 2 2 3 4 6 6 5 6 4 4 5 3 2 21 7 21 4 5 6 5 2 8 8 7 10 12 12 11
9 10 10 9 11 11 11 12 12 7 4 3 3 3 5 5 8 10 6 4 6 1 4 2 4 4 4 5 2 4 5 3 7 7 2 6 5 9 7 5 7 11 6 5 5 3 7 6 7 10 11 12 7 12
6 6 6 8 8 13 15 13 11 7 3 3 2 5 8 8 7 11 3 4 4 2 1 1 5 4 4 4 5 4 6 6 5 3 3 2 4 5 6 7 5 2 3 2 9 6 7 6 8 11 11 12 16 8
9 5 5 10 9 12 13 10 7 3 3 4 7 8 8 9 6 6 7 7 7 6 3 4 4 4 4 3 4 0 5 3 4 0 1 4 4 6 6 5 4 5 4 5 6 9 9 9 11 10 10 12 8 10
9 1 13 13 13 13 11 6 5 5 6 6 6 6 6 8 7 8 6 7 5 5 3 4 5 2 2 3 2 2 4 4 4 5 4 5 5 6 6 5 7 2 5 5 7 7 9 6 10 9 12 12 13 13
2 11 15 14 12 9 5 2 5 5 7 8 8 1 2 3 7 10 7 6 3 3 4 2 5 6 6 3 5 2 7 9 8 6 6 7 7 7 4 4 6 6 7 9 9 8 8 10 10 7 11 10 10 9
4 13 15 15 3 3 4 4 3 4 5 6 6 4 2 6 8 9 6 8 7 2 6 5 3 4 3 3 2 5 5 6 7 6 7 7 7 7 7 7 10 10 10 10 10 7 7 9 8 5 7 6 6 4
13 12 10 6 4 1 5 4 3 5 2 2 2 3 3 4 5 5 6 5 3 3 2 4 3 3 4 4 5 5 5 6 6 7 6 4 4 11 14 8 5 7 7 9 8 8 8 8 8 8 8 7 7 5
8 7 5 3 1 5 4 3 3 3 3 2 2 2 4 4 3 1 2 1 1 1 1 4 4 2 4 5 7 5 5 5 6 8 6 1 3 3 7 7 5 7 6 6 7 7 5 4 6 8 8 7 6 6
4 15 3 5 4 4 5 4 3 2 1 2 3 2 2 1 3 3 3 1 3 3 3 2 3 4 6 8 7 9 8 10 8 6 3 6 4 6 6 3 6 6 6 7 6 6 8 3 3 9 7 6 7 6
10 3 2 3 4 3 4 3 3 1 3 2 2 2 1 1 2 4 3 1 1 1 0 1 6 5 6 8 10 9 6 8 7 6 2 2 6 6 6 6 6 6 6 6 5 6 6 3 5 7 6 6 3 6
4 1 2 3 2 3 3 2 1 3 3 3 0 4 2 2 1 3 4 3 4 3 3 6 5 5 4 7 7 7 7 5 3 1 3 6 7 6 7 7 7 6 7 6 5 6 6 5 1 6 4 4 0 4
2 4 3 4 3 3 4 3 3 1 2 3 2 5 1 2 3 4 4 3 5 5 4 5 5 5 8 7 4 4 6 4 5 3 2 1 5 8 8 7 6 7 6 6 5 6 5 6 7 8 9 8 7 4
5 6 9 6 7 5 3 2 1 7 4 4 4 3 4 4 4 6 4 4 5 6 5 4 6 7 6 6 3 4 4 4 7 7 8 9 9 9 7 6 7 6 6 6 5 5 6 6 5 2 8 6 2 6
5 5 2 7 5 7 2 4 4 5 7 5 4 2 4 6 4 4 3 1 1 3 6 3 3 4 4 3 4 2 5 6 3 2 3 6 6 6 6 8 8 7 6 7 6 6 5 4 4 4 3 1 3 3
3 6 9 8 6 6 11 8 6 6 5 3 2 5 3 3 3 1 1 2 0 4 4 3 3 4 4 4 6 5 3 4 6 6 5 5 6 5 4 7 6 8 6 7 8 10 9 7 7 6 4 4 4 3
4 3 4 6 8 6 4 4 5 4 3 2 6 6 4 3 5 3 3 3 3 4 2 3 2 4 6 6 4 6 7 7 7 4 5 4 3 4 4 2 8 7 6 7 8 6 4 4 5 5 6 4 2 3
6 7 10 14 13 8 6 6 9 5 7 9 9 9 7 4 5 3 4 4 1 5 3 4 7 7 7 6 7 6 7 7 9 9 8 7 7 5 5 5 3 3 4 3 6 9 4 6 8 6 7 4 5 6
4 6 12 11 9 5 6 8 5 5 7 7 8 7 6 4 5 3 5 4 3 3 4 5 7 6 6 7 8 5 7 7 7 7 9 6 6 5 4 4 3 4 4 4 4 5 4 5 5 4 4 4 4 4
4 5 5 8 7 6 3 4 2 3 4 4 5 4 6 3 7 6 5 7 6 4 4 3 7 7 5 5 5 5 5 7 7 7 9 8 8 9 9 6 4 4 4 6 4 5 5 5 5 6 6 7 6 7
1 3 2 2 2 1 4 2 2 2 1 3 5 5 7 6 7 4 4 5 5 7 7 6 5 6 3 4 4 3 4 6 7 6 6 4 4 6 7 7 7 7 8 7 5 6 4 3 5 6 6 7 8 8
Wind_Direction
259 264 265 266 267 266 264 257 263 270 278 282 293 310 304 302 316 315 310 300 310 297 296 298 319 310 300 260 285 17 300 242 267 244 255 267 267 264 269 265 242 234 207 221 233 247 250 6 102 269 60 116 314 354
258 261 264 264 264 261 256 250 252 260 265 267 277 292 299 291 294 314 273 16 341 276 299 316 295 288 290 292 302 303 295 309 318 326 258 274 268 269 270 271 268 251 254 227 247 92 214 236 269 102 273 310 295 285
271 273 273 268 262 257 253 250 246 253 252 256 261 276 286 277 276 287 310 322 284 272 270 246 250 245 227 236 255 269 270 281 293 320 312 294 287 294 274 257 265 265 231 255 268 251 202 191 220 210 237 236 295 327
280 271 266 264 266 260 252 250 251 245 253 262 257 259 267 263 255 262 293 300 297 292 282 275 191 269 249 250 226 235 262 282 291 297 282 279 276 277 284 296 299 300 51 323 273 258 259 262 262 249 247 151 219 267
273 272 268 279 288 281 261 249 246 240 243 247 251 245 255 262 258 267 270 268 267 277 312 313 317 284 264 255 255 241 241 247 256 257 253 255 261 276 283 284 278 284 285 217 263 282 358 271 254 243 344 311 272 269
257 262 265 275 287 278 269 259 242 235 235 231 229 232 238 246 253 274 243 180 263 261 279 288 324 271 253 249 221 242 248 243 248 252 253 258 258 253 270 272 280 284 282 296 258 279 267 295 353 8 311 275 276 277
255 255 258 263 270 279 260 246 247 234 237 200 204 205 222 235 249 251 344 292 334 307 263 258 259 214 220 245 235 240 222 228 250 246 243 256 263 266 254 257 263 280 280 268 319 314 275 273 285 291 282 268 252 252
253 245 250 254 269 285 244 235 215 198 174 175 192 208 234 244 271 265 242 206 229 264 263 263 263 260 206 223 233 206 228 220 222 247 253 254 277 261 248 255 273 264 276 262 274 257 250 248 242 254 261 256 252 241
243 242 242 247 266 281 226 243 198 178 179 180 179 199 213 238 234 269 139 131 203 288 282 277 266 286 161 257 298 300 249 242 233 230 234 220 223 238 257 241 247 249 256 272 256 254 252 241 241 239 247 248 236 251
238 237 228 238 243 250 257 218 180 167 167 166 206 204 232 206 127 127 155 169 201 211 232 251 276 278 303 303 320 344 356 306 266 254 240 233 242 242 235 255 306 328 289 287 301 133 260 271 260 259 268 267 277 241
236 236 216 224 231 245 248 194 165 148 171 197 225 223 35 80 210 207 229 206 194 225 207 244 236 256 247 258 239 100 342 329 273 270 265 242 236 238 227 234 174 197 260 239 234 269 283 279 293 262 263 284 322 2
225 226 211 220 223 239 224 180 170 199 185 284 277 261 187 218 209 240 202 210 217 243 188 217 233 195 229 281 125 183 237 229 261 341 349 250 244 242 323 305 195 125 259 264 228 258 346 325 311 296 288 285 120 181
229 225 223 219 222 223 210 187 190 247 301 267 231 235 205 217 228 232 197 203 211 218 360 360 290 266 194 198 209 220 212 243 1 267 220 275 309 177 38 309 141 188 154 65 53 21 9 357 312 320 335 332 3 47
233 239 222 222 225 223 210 189 198 216 270 261 226 228 236 217 227 222 258 95 271 168 221 259 270 231 192 188 213 254 296 217 216 221 66 35 100 131 186 286 45 66 65 50 62 18 32 14 343 340 2 30 51 114
229 202 203 230 207 172 172 173 177 207 263 239 229 243 230 257 10 302 316 225 217 341 236 308 236 237 195 227 201 199 234 238 5 324 321 347 1 72 59 38 33 50 141 133 125 97 79 49 36 51 35 66 45 39
190 169 197 148 150 143 142 156 180 230 267 239 217 247 277 301 304 299 312 334 341 322 310 237 263 239 212 268 226 76 338 351 269 101 222 191 70 51 48 32 48 353 10 43 149 99 67 64 85 76 58 69 86 65
189 238 143 141 143 146 176 184 182 219 237 226 234 234 291 298 299 302 321 323 311 302 253 230 232 85 52 266 112 257 244 202 135 77 46 50 55 63 55 1 300 12 40 47 91 98 108 105 106 105 99 88 82 75
276 139 136 137 149 149 156 236 257 246 249 243 258 318 4 283 288 282 304 310 326 295 284 263 295 169 218 183 96 237 42 60 59 72 69 53 73 86 117 97 96 92 83 93 99 108 102 93 87 72 82 83 93 86
170 139 154 172 198 197 179 218 241 264 273 327 320 328 293 276 278 274 289 272 273 254 285 262 305 10 51 97 71 54 57 81 92 73 63 63 78 93 98 91 94 92 87 85 86 88 92 93 99 99 80 80 85 79
113 123 131 85 18 320 230 209 200 251 267 264 281 248 232 250 273 258 256 261 242 254 301 360 5 48 43 34 65 81 91 110 104 95 62 38 61 81 63 31 54 82 87 91 99 106 115 111 111 116 126 130 124 129
159 127 151 237 238 217 269 280 233 227 236 269 291 250 268 260 261 290 292 214 173 68 278 24 31 347 52 66 69 84 80 83 83 96 108 308 288 155 141 158 198 101 80 122 108 114 98 126 134 121 165 176 145 108
89 166 170 176 260 243 247 192 265 321 211 260 273 262 299 179 134 199 226 176 37 34 47 8 332 44 68 75 84 84 100 102 102 111 99 24 57 44 53 101 121 123 139 126 117 120 118 141 184 161 152 121 106 75
170 157 234 222 254 248 268 345 277 71 235 274 250 236 227 159 126 210 113 76 229 136 236 86 67 85 81 102 103 115 125 107 110 118 129 234 63 64 71 57 39 59 77 59 131 110 65 12 73 98 96 72 88 141
45 308 276 307 302 277 307 270 248 280 268 249 30 82 82 61 21 73 61 45 13 26 93 112 114 106 85 68 48 66 78 87 133 203 246 95 92 73 48 42 70 70 57 48 70 81 83 94 126 83 95 162 141 66
224 183 211 229 254 251 238 235 173 218 282 321 54 101 142 190 91 76 54 46 27 37 56 87 103 99 99 84 10 351 321 290 267 112 112 152 136 134 115 96 55 28 57 84 65 63 60 58 53 45 43 30 2 19
252 190 190 220 166 235 219 193 254 145 161 81 81 71 84 70 32 58 53 17 38 48 55 61 67 65 49 107 146 243 285 16 9 28 25 29 28 22 39 46 69 59 45 39 59 66 56 59 54 31 124 137 137 298
279 9 232 180 201 185 205 82 71 61 51 35 12 81 59 57 42 63 73 62 110 137 131 173 145 164 210 236 185 123 139 130 120 244 21 36 53 38 39 31 40 14 11 40 41 37 35 36 44 25 20 65 109 11
297 341 356 356 61 38 37 48 45 31 24 349 47 47 71 60 61 60 122 235 257 117 111 101 15 38 51 354 350 14 77 159 165 229 100 81 82 58 54 95 71 57 67 41 8 37 15 19 3 358 15 346 5 25
311 10 337 51 61 69 59 35 7 35 11 55 88 84 91 104 147 160 189 207 145 125 143 132 153 183 150 125 65 26 13 352 10 345 291 144 144 71 51 62 151 185 157 117 75 67 49 33 13 355 346 329 278 255
352 65 66 65 64 60 49 61 50 62 77 84 86 101 118 136 137 212 223 186 166 69 62 53 33 24 19 12 84 68 46 22 7 7 17 35 34 23 12 12 38 20 37 348 152 157 178 218 213 236 238 305 4 24
15 39 82 83 88 90 60 93 90 92 89 95 123 136 124 147 137 72 38 13 12 57 31 40 86 50 25 18 2 21 93 77 55 43 1 16 60 41 12 358 20 50 21 7 331 332 18 334 334 331 354 6 342 310
66 57 49 88 105 135 151 115 101 115 115 158 175 164 121 128 102 90 21 332 346 93 113 325 39 64 36 98 93 91 24 53 39 36 12 6 14 3 357 342 54 6 359 321 326 330 16 341 336 348 341 331 340 329
25 16 14 41 12 6 90 46 12 333 2 67 48 60 107 96 53 52 115 53 345 356 41 51 41 86 92 34 45 128 147 109 115 128 140 107 48 351 318 356 4 348 353 332 331 348 334 13 333 336 311 319 328 331